TimeMST,TemperatureF,Dew PointF,Humidity,Sea Level PressureIn,VisibilityMPH,Wind Direction,Wind SpeedMPH,Gust SpeedMPH,PrecipitationIn,Events,Conditions,WindDirDegrees,DateUTC
12:15 AM,37.4,8.6,30,30.05,10.0,SSE,8.1,-,N/A,,Clear,150,2013-02-19 07:15:00
12:35 AM,39.2,10.4,31,30.05,10.0,SE,8.1,-,N/A,,Clear,140,2013-02-19 07:35:00
12:55 AM,41.0,1.4,19,30.05,10.0,SSE,3.5,-,N/A,,Clear,160,2013-02-19 07:55:00
1:15 AM,41.0,-0.4,18,30.05,10.0,SW,3.5,-,N/A,,Clear,220,2013-02-19 08:15:00
1:35 AM,39.2,-0.4,19,30.06,10.0,South,5.8,-,N/A,,Clear,180,2013-02-19 08:35:00
1:55 AM,37.4,-0.4,20,30.06,10.0,WSW,3.5,-,N/A,,Clear,250,2013-02-19 08:55:00
2:15 AM,35.6,-2.2,20,30.07,10.0,NNW,4.6,-,N/A,,Clear,330,2013-02-19 09:15:00
2:35 AM,35.6,-2.2,20,30.06,10.0,North,4.6,-,N/A,,Clear,10,2013-02-19 09:35:00
2:55 AM,32.0,-2.2,23,30.05,10.0,NE,6.9,-,N/A,,Clear,40,2013-02-19 09:55:00
3:15 AM,35.6,-0.4,22,30.05,10.0,North,5.8,-,N/A,,Clear,360,2013-02-19 10:15:00
3:35 AM,37.4,-0.4,20,30.04,10.0,North,8.1,-,N/A,,Clear,10,2013-02-19 10:35:00
3:55 AM,37.4,-0.4,20,30.03,10.0,North,5.8,-,N/A,,Clear,10,2013-02-19 10:55:00
4:15 AM,37.4,-0.4,20,30.03,10.0,North,5.8,-,N/A,,Clear,350,2013-02-19 11:15:00
4:35 AM,35.6,-0.4,22,30.02,10.0,NNW,5.8,-,N/A,,Clear,340,2013-02-19 11:35:00
4:55 AM,35.6,-0.4,22,30.02,10.0,NNW,5.8,-,N/A,,Clear,340,2013-02-19 11:55:00
5:15 AM,32.0,-0.4,25,30.02,10.0,NNW,4.6,-,N/A,,Clear,340,2013-02-19 12:15:00
5:35 AM,28.4,-2.2,27,30.02,10.0,North,8.1,-,N/A,,Clear,360,2013-02-19 12:35:00
5:55 AM,32.0,-0.4,25,30.03,10.0,North,6.9,-,N/A,,Clear,10,2013-02-19 12:55:00
6:15 AM,33.8,-0.4,23,30.03,10.0,North,9.2,-,N/A,,Clear,360,2013-02-19 13:15:00
6:35 AM,33.8,-0.4,23,30.03,10.0,North,8.1,-,N/A,,Clear,10,2013-02-19 13:35:00
6:55 AM,33.8,-0.4,23,30.03,10.0,North,8.1,-,N/A,,Clear,350,2013-02-19 13:55:00
7:35 AM,35.6,-0.4,22,30.04,10.0,North,5.8,-,N/A,,Clear,360,2013-02-19 14:35:00
7:55 AM,39.2,1.4,21,30.05,10.0,North,5.8,-,N/A,,Clear,360,2013-02-19 14:55:00
8:15 AM,41.0,3.2,21,30.06,10.0,NNW,3.5,-,N/A,,Clear,340,2013-02-19 15:15:00
9:15 AM,46.4,5.0,18,30.06,5.0,North,3.5,-,N/A,,Haze,10,2013-02-19 16:15:00
9:35 AM,48.2,5.0,17,30.05,10.0,Calm,Calm,-,N/A,,Clear,0,2013-02-19 16:35:00
9:55 AM,50.0,6.8,17,30.04,10.0,SE,3.5,-,N/A,,Clear,140,2013-02-19 16:55:00
10:15 AM,51.8,6.8,16,30.03,10.0,SSE,4.6,-,N/A,,Clear,150,2013-02-19 17:15:00
10:35 AM,55.4,8.6,15,30.02,10.0,SSW,6.9,-,N/A,,Clear,200,2013-02-19 17:35:00
10:55 AM,59.0,14.0,17,30.00,10.0,South,16.1,21.9,N/A,,Clear,180,2013-02-19 17:55:00
11:15 AM,59.0,14.0,17,30.00,10.0,South,23.0,29.9,N/A,,Clear,190,2013-02-19 18:15:00
11:35 AM,59.0,14.0,17,29.99,10.0,SSE,21.9,28.8,N/A,,Clear,160,2013-02-19 18:35:00
11:55 AM,62.6,15.8,16,29.98,10.0,SSE,24.2,31.1,N/A,,Clear,160,2013-02-19 18:55:00
12:15 PM,59.0,15.8,19,29.96,10.0,SSE,26.5,29.9,N/A,,Clear,160,2013-02-19 19:15:00
12:35 PM,59.0,15.8,19,29.95,10.0,SSE,21.9,32.2,N/A,,Clear,160,2013-02-19 19:35:00
12:55 PM,60.8,15.8,17,29.94,10.0,SSE,24.2,28.8,N/A,,Clear,160,2013-02-19 19:55:00
1:15 PM,60.8,15.8,17,29.93,10.0,SSE,19.6,24.2,N/A,,Partly Cloudy,160,2013-02-19 20:15:00
1:35 PM,60.8,17.6,19,29.91,10.0,South,21.9,28.8,N/A,,Partly Cloudy,170,2013-02-19 20:35:00
1:55 PM,59.0,17.6,20,29.91,10.0,South,23.0,28.8,N/A,,Clear,170,2013-02-19 20:55:00
2:15 PM,59.0,19.4,22,29.91,10.0,South,20.7,33.4,N/A,,Partly Cloudy,170,2013-02-19 21:15:00
2:35 PM,59.0,23.0,25,29.91,10.0,South,20.7,29.9,N/A,,Partly Cloudy,190,2013-02-19 21:35:00
2:55 PM,57.2,24.8,29,29.91,10.0,South,18.4,28.8,N/A,,Partly Cloudy,180,2013-02-19 21:55:00
3:15 PM,57.2,28.4,33,29.91,10.0,South,25.3,33.4,N/A,,Partly Cloudy,190,2013-02-19 22:15:00
3:35 PM,57.2,30.2,36,29.91,10.0,South,20.7,29.9,N/A,,Partly Cloudy,190,2013-02-19 22:35:00
3:55 PM,55.4,32.0,41,29.91,10.0,South,29.9,34.5,N/A,,Partly Cloudy,190,2013-02-19 22:55:00
4:15 PM,53.6,35.6,51,29.92,10.0,South,24.2,33.4,N/A,,Partly Cloudy,180,2013-02-19 23:15:00
5:35 PM,50.0,41.0,71,29.93,10.0,SSE,23.0,32.2,N/A,,Partly Cloudy,160,2013-02-20 00:35:00
6:15 PM,50.0,39.2,66,29.92,10.0,SSE,25.3,29.9,N/A,,Mostly Cloudy,160,2013-02-20 01:15:00
6:35 PM,50.0,39.2,66,29.92,10.0,SSE,23.0,38.0,N/A,,Partly Cloudy,160,2013-02-20 01:35:00
7:15 PM,50.0,37.4,62,29.92,10.0,SSE,20.7,27.6,N/A,,Scattered Clouds,150,2013-02-20 02:15:00
7:35 PM,50.0,37.4,62,29.91,10.0,SSE,19.6,28.8,N/A,,Overcast,150,2013-02-20 02:35:00
7:55 PM,50.0,37.4,62,29.91,10.0,SSE,19.6,26.5,N/A,,Overcast,160,2013-02-20 02:55:00
8:15 PM,50.0,37.4,62,29.90,10.0,SSE,19.6,27.6,N/A,,Overcast,150,2013-02-20 03:15:00
8:35 PM,50.0,37.4,62,29.91,10.0,SSE,19.6,24.2,N/A,,Overcast,160,2013-02-20 03:35:00
8:55 PM,50.0,37.4,62,29.90,10.0,SSE,15.0,-,N/A,,Mostly Cloudy,160,2013-02-20 03:55:00
9:15 PM,50.0,37.4,62,29.88,10.0,SSE,18.4,28.8,N/A,,Partly Cloudy,150,2013-02-20 04:15:00
9:35 PM,50.0,37.4,62,29.89,10.0,SSE,16.1,23.0,N/A,,Clear,160,2013-02-20 04:35:00
9:55 PM,48.2,37.4,66,29.88,10.0,South,12.7,-,N/A,,Clear,170,2013-02-20 04:55:00
10:15 PM,48.2,37.4,66,29.89,10.0,South,10.4,-,N/A,,Partly Cloudy,180,2013-02-20 05:15:00
10:35 PM,48.2,37.4,66,29.88,10.0,SSE,15.0,-,N/A,,Mostly Cloudy,160,2013-02-20 05:35:00
10:55 PM,50.0,37.4,62,29.88,10.0,South,12.7,-,N/A,,Overcast,170,2013-02-20 05:55:00
11:15 PM,50.0,37.4,62,29.87,10.0,SSE,16.1,-,N/A,,Overcast,160,2013-02-20 06:15:00
11:35 PM,50.0,37.4,62,29.86,10.0,SSE,15.0,21.9,N/A,,Scattered Clouds,160,2013-02-20 06:35:00
11:55 PM,50.0,37.4,62,29.84,10.0,SSE,17.3,-,N/A,,Clear,160,2013-02-20 06:55:00